Temp
15 16 16 16 17 17 18 19 19 20 21 21 22 22 23 24 25 25 26 27 27 26 25 23 23 26 27 28 27 28 28 20 21 26 28 29 29 28 27 29 28 27 25 24 23
15 15 16 16 16 17 17 18 19 19 20 21 22 22 23 24 25 26 27 27 27 27 25 25 27 28 28 28 25 23 26 26 27 24 28 28 27 29 28 28 28 28 26 24 24
15 15 15 16 16 17 17 18 18 19 20 21 21 22 23 23 25 28 28 27 27 27 25 28 29 30 30 29 24 22 27 28 29 27 26 29 29 29 29 28 28 27 25 24 24
14 15 15 15 16 16 17 18 18 19 20 20 21 22 22 23 27 27 27 27 27 27 26 28 29 30 31 32 26 28 30 30 29 29 26 29 29 28 28 28 27 26 25 24 24
14 14 15 15 15 16 17 17 18 19 20 20 21 21 22 23 26 26 27 27 27 27 25 29 30 31 30 32 33 33 31 30 30 29 26 24 28 27 28 26 26 26 25 25 25
14 14 15 15 15 16 16 17 18 18 19 20 20 21 21 24 27 26 26 27 26 26 26 29 30 31 30 31 34 33 32 31 31 29 25 19 21 28 28 26 27 26 25 25 25
13 14 14 15 16 16 16 17 17 18 19 20 20 21 20 24 27 26 26 26 25 26 28 29 30 30 31 32 34 32 29 29 30 30 29 26 26 26 30 28 27 26 26 26 26
13 14 14 15 16 16 17 17 18 18 19 19 20 20 21 25 26 27 27 27 27 27 28 29 30 30 30 31 32 33 30 24 25 27 26 25 24 24 25 29 27 26 26 26 26
13 14 14 15 16 16 17 17 18 18 19 19 20 20 24 25 25 26 27 27 27 28 29 29 29 29 30 31 31 33 32 26 22 27 19 23 19 24 26 28 28 27 26 26 26
13 14 14 15 16 16 17 18 18 18 18 18 18 21 23 26 26 26 26 27 28 28 28 29 29 30 31 31 30 32 32 29 23 23 19 19 25 25 25 29 29 28 26 27 26
14 14 14 15 16 16 18 19 18 17 18 22 25 24 27 26 26 27 27 27 27 28 29 29 29 29 31 32 33 33 31 30 27 26 22 19 19 23 24 29 29 28 28 27 27
13 14 14 15 16 16 17 17 19 18 20 22 22 24 25 26 25 26 27 27 28 28 30 29 28 31 32 33 33 33 33 31 28 29 26 20 21 23 23 27 30 29 28 28 27
13 14 14 15 16 17 17 19 18 18 20 22 23 24 25 25 25 26 26 27 28 28 29 29 30 31 31 32 32 33 33 29 28 30 28 24 22 23 28 30 31 31 29 28 28
13 14 14 15 15 16 19 18 18 19 20 24 25 25 25 25 26 25 27 27 28 28 29 30 31 31 31 31 32 32 34 34 32 29 30 34 30 27 31 32 33 32 30 29 28
13 13 14 14 16 17 18 18 18 19 20 28 27 26 26 26 27 27 26 27 28 28 29 29 30 31 31 31 33 32 34 34 34 32 33 32 32 30 32 31 32 33 32 30 29
13 13 14 14 15 16 16 17 18 20 21 26 26 26 26 26 26 28 26 27 28 28 29 30 31 31 32 33 33 34 33 33 32 32 31 33 33 30 33 32 33 33 32 31 30
13 13 14 14 16 16 16 18 20 20 26 26 26 26 26 26 26 27 27 26 26 25 26 29 30 32 32 32 33 33 32 29 28 29 30 33 33 32 32 33 35 34 33 32 31
13 13 14 14 14 16 16 19 18 23 25 27 26 27 26 27 27 27 27 26 27 27 27 27 27 30 32 32 31 32 32 30 27 28 31 33 32 34 33 34 35 34 33 33 32
13 14 14 15 15 15 17 19 21 23 24 24 25 24 25 26 27 27 27 27 28 27 26 27 28 31 31 32 33 31 31 33 31 32 31 33 34 35 34 35 35 34 32 30 31
13 13 17 17 16 16 19 18 22 24 23 23 22 24 24 25 26 27 27 28 28 29 29 28 27 30 32 32 33 32 32 31 31 28 28 31 30 29 30 34 35 35 35 34 34
14 16 17 17 17 17 19 21 23 23 22 22 22 23 24 25 26 26 26 27 28 29 30 28 28 29 31 31 31 31 32 31 32 32 29 29 31 32 29 29 34 35 34 33 33
14 20 17 17 18 20 21 21 20 22 21 22 22 22 23 24 25 24 24 23 26 27 26 28 28 27 29 32 32 32 31 31 29 28 31 32 32 32 31 32 35 34 33 32 31
15 19 18 17 19 20 17 21 21 21 21 21 22 23 23 23 23 25 22 24 24 25 25 26 26 25 27 30 32 31 31 31 31 31 29 30 32 29 30 31 33 33 31 30 30
14 20 19 19 20 20 19 19 20 20 20 20 21 22 22 22 23 23 21 23 23 25 20 22 25 25 26 28 31 30 30 31 31 30 30 31 32 32 31 32 32 31 30 30 29
16 19 16 18 18 18 18 18 18 18 17 18 20 20 21 21 22 22 24 22 23 22 23 24 24 26 28 29 30 30 30 30 30 31 30 31 32 33 30 29 29 30 29 28 28
15 15 15 18 17 17 15 16 15 16 16 14 16 16 21 21 20 20 23 24 23 24 24 25 24 25 26 28 28 27 30 30 30 31 31 31 32 27 28 30 29 29 28 27 26
13 13 15 15 17 15 14 14 14 14 15 15 12 14 16 16 18 20 21 23 23 24 23 24 24 24 24 27 28 26 28 30 30 31 31 30 24 24 24 26 25 25 24 23 23
Height
1514 1513 1511 1510 1508 1506 1504 1502 1501 1499 1497 1497 1496 1495 1493 1492 1491 1490 1490 1489 1488 1488 1487 1488 1490 1488 1488 1485 1486 1484 1481 1509 1499 1484 1481 1481 1484 1491 1492 1491 1495 1498 1505 1513 1520
1513 1511 1509 1508 1506 1505 1503 1502 1500 1498 1496 1495 1494 1493 1492 1491 1489 1486 1488 1487 1487 1487 1487 1489 1487 1485 1485 1484 1491 1488 1491 1487 1485 1487 1482 1483 1486 1488 1491 1493 1498 1500 1508 1515 1521
1512 1510 1508 1506 1504 1503 1501 1501 1499 1498 1496 1494 1493 1492 1491 1490 1487 1481 1482 1484 1486 1486 1487 1488 1484 1481 1477 1476 1490 1491 1487 1481 1480 1483 1484 1479 1483 1487 1488 1494 1497 1501 1508 1515 1520
1512 1509 1506 1504 1502 1500 1498 1496 1495 1495 1494 1493 1491 1490 1490 1491 1487 1480 1482 1483 1484 1485 1486 1487 1484 1480 1476 1467 1476 1478 1475 1477 1479 1477 1484 1482 1484 1487 1490 1494 1499 1504 1509 1514 1519
1511 1508 1506 1503 1501 1499 1497 1495 1493 1491 1491 1491 1490 1489 1489 1489 1481 1480 1481 1482 1483 1483 1486 1485 1482 1478 1479 1469 1465 1463 1472 1476 1476 1480 1481 1484 1484 1489 1491 1494 1500 1507 1511 1515 1519
1512 1508 1505 1502 1500 1498 1495 1493 1491 1490 1489 1489 1488 1487 1488 1486 1482 1480 1481 1481 1482 1482 1485 1484 1480 1478 1479 1472 1463 1462 1470 1475 1474 1480 1483 1484 1490 1485 1491 1495 1501 1506 1511 1515 1519
1511 1507 1504 1500 1498 1496 1494 1491 1489 1488 1487 1487 1487 1486 1485 1477 1479 1478 1481 1481 1481 1483 1483 1481 1480 1479 1475 1470 1462 1466 1477 1478 1477 1476 1480 1490 1498 1490 1487 1493 1501 1507 1511 1514 1517
1510 1506 1502 1499 1496 1493 1491 1489 1487 1485 1485 1485 1485 1485 1478 1474 1476 1477 1479 1480 1481 1482 1482 1479 1478 1479 1477 1473 1466 1463 1473 1499 1484 1489 1490 1487 1512 1502 1493 1494 1501 1506 1510 1513 1517
1508 1504 1500 1496 1493 1490 1488 1486 1484 1482 1482 1483 1484 1483 1474 1469 1470 1473 1476 1477 1479 1479 1479 1479 1479 1479 1476 1472 1471 1458 1469 1490 1497 1496 1509 1510 1525 1499 1493 1494 1497 1504 1510 1512 1515
1507 1503 1498 1494 1491 1488 1485 1483 1481 1480 1480 1481 1481 1485 1470 1465 1466 1469 1472 1474 1475 1476 1477 1478 1479 1476 1470 1469 1480 1463 1463 1478 1498 1504 1513 1517 1511 1502 1492 1492 1496 1499 1504 1509 1513
1506 1502 1497 1492 1490 1487 1484 1481 1481 1480 1478 1470 1465 1465 1458 1460 1463 1464 1468 1472 1473 1472 1470 1472 1475 1476 1467 1460 1452 1453 1464 1476 1487 1489 1502 1521 1523 1513 1498 1485 1491 1496 1499 1503 1509
1505 1500 1495 1491 1488 1486 1484 1483 1482 1484 1474 1467 1464 1463 1460 1461 1464 1463 1465 1467 1468 1467 1467 1470 1470 1463 1460 1454 1451 1452 1455 1468 1478 1475 1490 1508 1516 1490 1477 1482 1475 1485 1495 1498 1504
1503 1499 1494 1490 1487 1486 1485 1484 1482 1482 1474 1458 1455 1455 1457 1460 1460 1457 1462 1462 1461 1464 1462 1464 1459 1459 1459 1456 1454 1449 1451 1465 1478 1469 1471 1487 1506 1499 1475 1470 1471 1477 1486 1495 1499
1502 1497 1493 1489 1489 1486 1485 1484 1483 1482 1472 1445 1441 1445 1450 1455 1454 1456 1455 1459 1458 1458 1459 1455 1454 1453 1455 1456 1450 1456 1438 1444 1456 1471 1474 1449 1479 1475 1465 1463 1463 1467 1477 1488 1494
1500 1496 1492 1489 1487 1485 1486 1484 1482 1482 1479 1424 1434 1441 1444 1448 1446 1446 1452 1452 1451 1453 1454 1450 1451 1451 1451 1450 1445 1449 1437 1444 1446 1455 1454 1458 1466 1464 1457 1467 1464 1461 1467 1478 1486
1498 1494 1491 1489 1486 1485 1485 1484 1483 1481 1470 1431 1435 1442 1443 1446 1447 1442 1448 1452 1452 1452 1447 1444 1445 1444 1442 1440 1441 1440 1442 1445 1453 1456 1474 1455 1459 1473 1449 1453 1451 1455 1462 1469 1478
1495 1492 1489 1487 1487 1486 1485 1484 1480 1474 1431 1431 1431 1432 1438 1439 1443 1441 1441 1447 1451 1460 1454 1445 1441 1437 1439 1442 1436 1442 1450 1475 1490 1481 1477 1444 1455 1449 1448 1445 1440 1446 1456 1462 1470
1491 1488 1486 1484 1485 1485 1485 1481 1480 1447 1438 1425 1429 1427 1433 1432 1433 1437 1438 1445 1442 1444 1448 1453 1455 1435 1430 1434 1440 1439 1445 1465 1498 1489 1467 1441 1460 1442 1435 1441 1440 1449 1453 1458 1467
1487 1485 1483 1483 1485 1484 1484 1475 1461 1448 1438 1438 1435 1439 1438 1430 1428 1428 1433 1435 1433 1438 1447 1445 1441 1426 1430 1429 1432 1438 1445 1439 1457 1449 1456 1444 1436 1426 1430 1439 1437 1442 1450 1458 1459
1485 1483 1481 1483 1483 1484 1480 1472 1453 1446 1448 1448 1453 1443 1440 1432 1430 1424 1426 1424 1429 1425 1433 1432 1444 1426 1422 1428 1425 1429 1435 1453 1447 1480 1488 1456 1460 1461 1448 1435 1434 1437 1444 1450 1454
1485 1480 1479 1481 1482 1481 1473 1456 1448 1450 1455 1456 1453 1448 1437 1429 1424 1427 1431 1423 1421 1421 1421 1428 1432 1428 1419 1422 1428 1430 1433 1436 1436 1442 1468 1472 1453 1434 1446 1446 1434 1438 1443 1451 1457
1487 1475 1479 1481 1480 1468 1458 1455 1460 1456 1457 1455 1454 1450 1443 1431 1429 1431 1433 1436 1421 1424 1426 1421 1427 1434 1423 1410 1414 1419 1426 1431 1452 1465 1440 1445 1442 1423 1435 1440 1431 1435 1442 1453 1460
1485 1476 1478 1479 1471 1463 1469 1459 1456 1459 1456 1455 1451 1449 1444 1440 1440 1427 1437 1436 1438 1433 1434 1431 1435 1446 1437 1417 1406 1418 1421 1427 1433 1440 1451 1455 1441 1432 1438 1439 1435 1439 1447 1454 1461
1488 1472 1473 1472 1469 1468 1466 1462 1459 1460 1462 1459 1454 1449 1444 1444 1436 1433 1445 1440 1441 1436 1441 1443 1438 1437 1437 1418 1403 1417 1420 1422 1429 1442 1447 1442 1434 1426 1428 1438 1442 1447 1451 1457 1463
1488 1479 1485 1476 1476 1478 1475 1471 1467 1466 1471 1465 1458 1455 1451 1450 1443 1438 1433 1440 1442 1440 1440 1439 1440 1428 1418 1409 1409 1408 1419 1425 1429 1428 1437 1432 1431 1423 1435 1440 1443 1450 1456 1460 1464
1496 1494 1489 1479 1482 1482 1479 1479 1483 1477 1479 1479 1470 1467 1449 1448 1451 1448 1437 1430 1438 1438 1438 1432 1440 1431 1425 1415 1415 1420 1410 1417 1421 1421 1427 1427 1430 1437 1428 1428 1443 1454 1460 1464 1466
1501 1498 1494 1487 1481 1488 1492 1491 1490 1489 1483 1482 1487 1479 1464 1463 1457 1449 1442 1437 1436 1433 1437 1435 1434 1437 1437 1419 1418 1433 1417 1414 1419 1419 1423 1434 1451 1448 1453 1454 1455 1463 1465 1471 1473
Wind_Speed
13 12 12 12 13 13 14 14 15 15 15 15 14 14 14 14 13 13 8 4 5 8 5 7 10 11 10 16 11 9 4 3 6 4 11 16 13 11 11 10 11 9 27 27 24
14 14 14 14 14 14 14 14 15 16 17 16 15 15 15 15 16 17 14 13 13 7 7 11 10 10 13 8 6 6 1 2 11 3 7 9 7 19 14 16 11 19 26 26 25
15 15 15 15 15 16 15 14 14 15 16 16 16 15 14 13 16 16 12 15 12 7 10 10 10 9 17 13 9 6 5 7 6 6 28 19 12 13 12 3 18 29 31 28 25
16 15 15 15 15 16 16 17 16 15 14 15 16 16 13 8 6 3 2 9 10 9 11 15 11 13 14 11 28 6 6 7 5 8 14 13 15 10 14 14 12 24 28 28 25
18 17 16 15 15 15 16 16 17 17 15 13 14 15 11 10 22 16 14 10 13 14 14 14 14 13 12 19 10 3 14 5 11 4 6 12 17 8 12 19 16 23 25 25 23
19 18 17 16 15 14 15 15 16 16 15 13 12 13 11 18 10 9 7 10 13 16 14 16 15 9 10 23 12 11 12 2 13 15 15 5 13 24 24 26 22 23 25 24 22
20 19 17 16 16 15 14 15 14 14 13 12 11 11 14 25 6 8 12 11 13 14 15 15 15 16 16 17 10 14 9 12 17 19 13 19 2 11 16 22 20 22 23 23 22
22 21 19 17 16 16 15 15 14 13 11 10 8 8 13 13 23 16 12 15 14 16 17 18 12 14 18 20 22 15 10 5 15 18 10 16 7 11 18 20 22 22 22 23 22
22 23 21 19 17 15 14 14 13 11 9 7 6 7 18 10 21 21 20 20 19 18 17 16 11 16 20 17 15 15 12 13 1 17 5 13 4 17 17 11 21 25 21 22 23
22 23 23 20 17 15 12 12 10 11 6 6 12 10 21 19 18 22 21 19 22 22 20 18 17 14 15 15 15 9 2 9 11 2 12 12 4 20 30 19 18 22 30 26 24
22 24 25 21 16 12 9 8 7 3 13 17 6 16 15 20 4 18 24 23 21 23 21 24 15 18 21 20 23 17 14 9 13 16 10 3 15 16 30 23 25 22 24 26 26
23 25 25 19 13 6 5 7 5 8 12 19 28 25 20 10 9 18 17 28 24 22 20 20 22 23 23 23 22 19 13 14 10 17 14 21 22 26 27 32 33 30 26 26 27
24 24 23 16 9 4 6 8 7 10 9 22 28 29 25 16 16 16 24 27 21 24 25 24 25 23 23 23 23 21 19 13 12 15 22 23 22 26 20 26 29 28 28 26 28
24 25 21 12 5 7 5 4 7 8 6 15 22 23 26 25 23 23 20 27 27 26 27 26 26 26 24 23 23 20 17 12 19 19 7 11 8 22 21 17 16 26 30 27 29
24 24 17 12 9 4 6 8 8 5 6 6 12 4 16 27 14 26 28 24 25 26 22 28 28 27 28 25 25 21 19 13 16 10 12 9 9 4 15 13 18 17 29 29 30
22 21 15 8 10 5 10 7 5 6 10 8 10 10 14 21 23 12 28 25 24 25 26 29 28 29 28 25 24 22 19 14 11 15 13 13 12 14 19 23 23 23 26 29 31
19 18 12 7 5 10 7 6 6 9 11 6 12 12 15 16 20 21 18 23 19 19 25 26 31 27 31 28 23 24 18 9 12 12 13 15 13 7 11 16 12 20 28 28 34
17 15 10 7 7 8 5 8 10 11 19 8 4 6 12 18 22 22 19 17 24 26 17 22 24 30 23 32 26 25 22 14 13 13 15 15 16 9 19 11 9 21 16 24 24
14 8 6 4 6 2 9 9 13 15 12 17 5 11 14 16 18 22 25 21 21 24 26 22 30 21 30 27 28 25 20 22 23 20 12 13 18 17 17 13 13 23 25 27 41
15 7 12 5 3 5 8 14 20 12 10 9 11 16 15 17 20 17 16 22 23 23 25 26 21 28 26 31 28 30 15 21 16 21 14 18 5 8 10 14 14 12 11 6 7
9 7 6 3 4 10 9 16 9 10 6 9 14 18 20 19 9 14 21 19 24 18 26 26 24 22 27 27 28 22 22 22 16 17 15 15 11 22 7 14 13 13 20 13 10
10 3 1 3 9 12 11 3 5 11 13 10 13 16 20 16 12 18 6 19 7 1 8 13 9 17 22 19 29 29 23 24 12 20 14 16 15 13 16 18 14 16 14 16 11
8 5 2 1 7 9 4 21 4 7 13 10 13 13 17 17 11 17 8 6 10 5 2 7 14 13 20 22 26 31 23 23 21 19 18 15 16 14 8 12 11 22 23 19 12
8 1 3 6 3 10 14 13 14 1 9 16 14 18 12 12 14 18 6 5 8 8 11 2 14 18 18 18 20 26 29 26 24 17 18 19 20 5 19 14 22 14 16 16 11
6 6 6 7 11 13 11 13 14 11 9 23 8 16 11 14 15 14 16 13 6 4 7 8 15 17 28 27 16 23 23 23 27 24 21 18 19 10 16 9 13 19 13 14 16
10 10 13 9 7 10 8 11 14 13 16 11 18 28 11 16 7 18 10 7 8 10 11 11 12 16 20 22 15 21 24 25 30 21 22 24 18 23 32 32 26 13 12 13 18
12 10 12 9 7 7 10 11 13 13 15 8 16 18 10 18 22 14 16 7 6 6 10 11 11 10 17 18 12 19 17 23 20 19 16 18 14 18 18 18 26 24 22 16 15
Wind_Direction
325 321 317 315 314 312 310 308 305 301 300 302 305 305 302 301 295 294 279 284 255 288 252 173 207 240 258 252 244 351 336 76 304 183 128 138 129 129 156 139 130 104 138 148 148
329 321 316 312 309 307 307 305 303 302 300 299 300 301 302 305 298 281 269 253 265 256 188 184 208 237 262 266 20 34 295 200 148 252 195 136 181 156 172 138 120 133 134 145 151
337 329 320 312 309 307 304 301 298 297 297 298 296 295 300 310 309 262 234 237 251 240 195 219 271 253 280 135 154 163 247 173 147 256 223 164 163 169 134 147 143 136 146 153 156
343 335 328 321 315 308 305 303 300 295 293 294 295 292 293 292 267 91 285 225 238 222 195 243 261 270 306 289 177 163 153 197 149 159 146 166 154 156 178 150 145 149 153 157 162
348 337 329 324 320 315 310 304 300 297 292 289 288 290 291 260 252 272 276 271 225 214 224 243 251 233 284 308 279 155 151 186 173 161 91 349 169 142 156 150 147 154 159 163 165
353 344 331 323 319 317 316 310 302 294 289 285 280 281 279 255 219 254 260 256 226 210 232 242 251 281 266 263 284 126 119 132 175 153 143 135 257 162 160 154 158 158 165 167 169
355 348 338 324 316 313 314 313 304 292 284 278 273 271 258 239 235 219 215 227 213 217 240 243 254 279 286 298 306 121 101 297 260 167 170 190 291 7 132 140 147 164 169 171 171
352 348 342 333 318 308 308 313 307 294 281 269 263 256 258 251 249 234 235 223 225 228 244 250 265 262 275 282 289 256 149 118 300 33 358 95 17 299 302 148 156 168 173 174 172
348 347 341 334 329 311 303 306 307 290 272 250 240 228 260 251 235 226 224 227 225 233 242 248 264 264 268 249 253 250 217 148 112 355 112 333 192 321 275 192 162 166 173 182 175
344 344 340 332 331 320 310 304 296 280 263 236 243 258 247 233 229 225 222 229 230 226 232 234 244 254 246 253 243 255 156 106 121 280 74 290 239 187 247 179 169 167 173 185 179
341 341 340 331 329 326 332 319 286 224 216 225 247 212 300 200 213 227 216 219 225 238 227 225 234 235 240 233 260 281 165 182 174 192 128 231 272 282 273 193 171 175 178 181 181
340 340 339 329 327 330 328 310 11 318 294 253 253 250 248 226 249 224 210 211 213 227 223 229 226 238 243 251 246 252 253 155 178 236 141 168 219 209 227 237 172 172 180 185 180
337 339 339 333 335 18 315 297 311 323 271 270 240 235 230 217 232 244 211 218 216 222 229 228 230 225 244 248 254 255 253 141 178 230 219 173 191 221 220 232 166 174 175 187 185
336 339 339 339 335 320 297 308 318 316 277 255 211 225 222 224 239 236 231 213 225 227 226 238 231 239 220 244 247 250 252 247 192 184 216 214 218 190 197 187 194 175 171 184 187
333 336 338 338 318 321 311 314 302 284 278 101 146 160 208 207 230 207 219 226 229 222 228 231 236 230 241 223 244 251 257 226 253 263 276 180 257 187 189 178 196 206 175 182 186
327 329 331 334 314 295 307 301 288 234 244 163 139 204 220 203 228 245 199 226 226 242 234 241 231 238 238 241 229 251 252 253 283 282 247 248 256 168 185 194 185 183 189 180 180
320 319 310 296 278 301 300 265 226 244 210 223 186 202 210 204 221 228 188 206 218 219 232 233 237 238 237 240 230 230 242 223 236 245 243 231 234 170 100 291 206 170 186 181 176
312 306 292 314 289 297 275 236 248 255 243 265 349 303 214 215 215 216 215 213 218 234 223 227 226 228 231 233 235 223 221 232 222 241 238 224 245 211 164 159 135 161 179 178 191
318 311 303 271 276 265 249 234 234 250 359 357 344 263 263 257 257 201 220 227 221 213 235 224 234 224 231 236 231 238 218 230 244 231 255 252 213 240 126 175 182 160 162 167 216
326 301 236 216 258 266 255 262 283 323 346 320 291 289 274 250 230 233 237 217 240 219 219 243 246 231 221 230 239 232 234 223 234 250 245 257 224 276 315 193 197 172 174 129 139
315 253 147 228 272 256 250 258 281 32 3 305 284 278 284 273 258 233 241 243 224 253 209 223 244 244 225 211 225 222 225 236 245 237 235 248 249 199 100 323 208 200 133 101 59
288 283 44 268 252 234 248 218 344 317 296 267 269 279 290 287 288 278 199 24 45 195 294 222 251 239 250 234 214 231 223 228 228 254 235 256 267 145 168 200 157 141 119 103 78
287 320 84 221 282 328 104 288 300 296 288 279 264 260 269 281 285 255 44 6 338 261 296 289 235 249 251 257 212 215 216 227 229 231 250 249 248 133 149 302 38 136 118 98 69
291 310 203 226 269 347 348 332 312 148 295 289 302 295 278 271 269 268 127 274 272 275 6 330 259 234 242 251 197 201 215 219 228 230 224 247 248 183 148 199 170 137 91 100 81
296 28 355 340 355 342 308 319 310 358 340 315 272 264 268 266 256 246 258 170 227 235 278 236 251 254 242 258 281 202 211 231 233 240 236 233 236 231 155 128 49 90 83 69 65
353 350 339 320 9 334 32 37 342 341 327 322 317 340 280 253 349 343 287 238 190 201 229 237 241 259 267 254 253 286 212 208 227 225 234 243 246 37 26 117 152 119 102 71 58
353 335 289 330 22 359 15 342 336 329 302 330 357 335 337 355 331 325 319 212 10 187 215 249 251 271 250 245 207 227 257 200 226 234 248 233 55 47 41 33 51 57 64 47 30